Location: Chavenne
(46.6022°N, 3.2951°E)
Time: 16:06:26
(UTC+00:00)

MetOp-B - Pass Details

Date: 09 April 2020
Orbit: 819 x 822 km, 98.7° (Epoch: 27 May)

Event Time Altitude Azimuth Distance (km) Brightness Sun altitude
Exits shadow 20:32:22 35° 157° (SSE) 1,293 4.7 -20.2°
Maximum altitude 20:34:42 82° 74° (ENE) 837 4.0 -20.5°
Drops below altitude 10° 20:40:05 10° 347° (NNW) 2,430 7.3 -21.3°
Sets 20:42:26 0° 347° (NNW) 3,367 8.2 -21.6°
